KI6IKQ Weather Reports


time (UTC)temp
F
wind
direction
speed
knots
gust
knots
rain 1hr
in
rain 24hr
in
rain mn
in
humidity
%
barometer
mb
20260510130904 55 277 0.9 2.6 0.00 0.00 0.00 86 1012.1
20260510130004 55 287 0.9 3.5 0.00 0.00 0.00 86 1012.1
20260510125404 55 287 0.9 2.6 0.00 0.00 0.00 85 1012.2
20260510124524 55 285 0.9 2.6 0.00 0.00 0.00 85 1012.2
20260510123624 55 276 0.9 3.5 0.00 0.00 0.00 85 1012.1
20260510122724 55 277 0.9 3.5 0.00 0.00 0.00 85 1012.0
20260510121824 56 282 0.9 4.3 0.00 0.00 0.00 85 1012.1
20260510120924 56 271 0.9 3.5 0.00 0.00 0.00 85 1012.2
20260510120003 56 281 0.9 3.5 0.00 0.00 0.00 85 1012.1
20260510115403 56 274 0.9 2.6 0.00 0.00 0.00 84 1012.1
20260510114503 56 276 0.9 3.5 0.00 0.00 0.00 84 1012.2
20260510113603 56 289 0.9 3.5 0.00 0.00 0.00 84 1012.2
20260510112703 56 298 0.9 3.5 0.00 0.00 0.00 84 1012.1
20260510111803 56 295 0.9 3.5 0.00 0.00 0.00 84 1012.1
20260510110903 56 280 0.9 4.3 0.00 0.00 0.00 84 1012.1
20260510110003 56 281 0.9 3.5 0.00 0.00 0.00 83 1011.9
20260510105403 56 303 0.9 3.5 0.00 0.00 0.00 83 1011.9
20260510104503 57 295 0.9 3.5 0.00 0.00 0.00 83 1011.7
20260510103603 57 294 0.9 3.5 0.00 0.00 0.00 83 1011.7
20260510102703 57 296 0.9 5.2 0.00 0.00 0.00 83 1011.8
20260510101803 57 297 0.9 3.5 0.00 0.00 0.00 82 1011.8
20260510100903 57 305 1.7 6.1 0.00 0.00 0.00 82 1011.8
20260510100003 57 296 1.7 6.1 0.00 0.00 0.00 82 1011.8
20260510095403 57 301 1.7 5.2 0.00 0.00 0.00 82 1011.9
20260510094503 57 299 1.7 5.2 0.00 0.00 0.00 82 1011.8
20260510093603 57 312 1.7 5.2 0.00 0.00 0.00 82 1011.9
20260510092703 57 306 1.7 4.3 0.00 0.00 0.00 81 1011.9
20260510091803 58 308 1.7 4.3 0.00 0.00 0.00 81 1011.9
20260510090903 58 308 1.7 4.3 0.00 0.00 0.00 81 1011.8
20260510090003 58 319 1.7 3.5 0.00 0.00 0.00 80 1011.6
20260510085403 58 323 0.9 3.5 0.00 0.00 0.00 80 1011.7
20260510084503 58 285 0.9 3.5 0.00 0.00 0.00 80 1011.8
20260510083605 58 306 0.9 2.6 0.00 0.00 0.00 79 1011.8
20260510082724 58 315 0.9 2.6 0.00 0.00 0.00 79 1011.8
20260510081803 59 292 0.9 2.6 0.00 0.00 0.00 78 1011.9
20260510080903 59 299 0.9 5.2 0.00 0.00 0.00 78 1011.9
20260510080003 59 313 0.9 3.5 0.00 0.00 0.00 78 1011.8
20260510075403 59 315 1.7 3.5 0.00 0.00 0.00 78 1011.9
20260510074503 59 301 0.9 3.5 0.00 0.00 0.00 77 1011.7
20260510073603 59 308 1.7 4.3 0.00 0.00 0.00 77 1011.8
20260510072725 60 322 1.7 4.3 0.00 0.00 0.00 76 1011.8
20260510071803 60 318 1.7 4.3 0.00 0.00 0.00 76 1011.8
20260510070903 60 321 1.7 4.3 0.00 0.00 0.00 75 1011.7
20260510070004 60 311 1.7 4.3 0.00 0.00 0.00 74 1011.8
20260510065424 61 328 1.7 4.3 0.00 0.00 0.00 74 1011.8
20260510064503 61 320 0.9 4.3 0.00 0.00 0.00 73 1011.6
20260510063603 61 312 1.7 3.5 0.00 0.00 0.00 72 1011.6
20260510062703 62 292 1.7 3.5 0.00 0.00 0.00 71 1011.6
20260510061803 62 298 0.9 2.6 0.00 0.00 0.00 71 1011.6
20260510060924 62 283 0.9 2.6 0.00 0.00 0.00 70 1011.5
20260510060003 63 281 0.9 2.6 0.00 0.00 0.00 69 1011.4
20260510055403 63 263 0.9 2.6 0.00 0.00 0.00 69 1011.3
20260510054503 63 254 0.9 3.5 0.00 0.00 0.00 68 1011.4
20260510053603 64 271 0.9 1.7 0.00 0.00 0.00 67 1011.3
20260510052703 64 304 0.9 2.6 0.00 0.00 0.00 66 1011.3
20260510051803 65 277 0.9 5.2 0.00 0.00 0.00 65 1011.2
20260510050903 65 245 0.9 2.6 0.00 0.00 0.00 64 1011.3
20260510050003 66 249 0.9 3.5 0.00 0.00 0.00 63 1011.4
20260510045403 66 248 1.7 3.5 0.00 0.00 0.00 62 1011.4
20260510044503 66 254 1.7 3.5 0.00 0.00 0.00 61 1011.3
20260510043603 67 262 1.7 4.3 0.00 0.00 0.00 61 1011.3
20260510042703 68 245 1.7 4.3 0.00 0.00 0.00 61 1011.4
20260510041803 68 244 1.7 3.5 0.00 0.00 0.00 59 1011.2
20260510040903 69 248 0.9 3.5 0.00 0.00 0.00 57 1011.2
20260510040006 69 247 0.9 5.2 0.00 0.00 0.00 57 1011.0
20260510035403 70 248 1.7 5.2 0.00 0.00 0.00 57 1010.9
20260510034503 70 248 1.7 3.5 0.00 0.00 0.00 57 1010.8
20260510033603 71 245 1.7 3.5 0.00 0.00 0.00 56 1010.7
20260510032703 72 248 1.7 4.3 0.00 0.00 0.00 55 1010.6
20260510031803 73 242 1.7 4.3 0.00 0.00 0.00 54 1010.6
20260510030903 74 245 1.7 3.5 0.00 0.00 0.00 53 1010.4
20260510030003 75 237 1.7 7.8 0.00 0.00 0.00 50 1010.3
20260510025403 76 243 1.7 7.8 0.00 0.00 0.00 49 1010.3
20260510024503 77 255 2.6 8.7 0.00 0.00 0.00 49 1010.3
20260510023603 78 254 2.6 7.8 0.00 0.00 0.00 48 1010.3
20260510022703 79 246 2.6 5.2 0.00 0.00 0.00 50 1010.3
20260510021803 79 250 2.6 7.0 0.00 0.00 0.00 49 1010.3
20260510020903 80 253 2.6 7.0 0.00 0.00 0.00 47 1010.4
20260510020003 81 250 2.6 10.4 0.00 0.00 0.00 48 1010.3
20260510015403 82 251 2.6 8.7 0.00 0.00 0.00 47 1010.3
20260510014503 82 260 2.6 7.8 0.00 0.00 0.00 47 1010.3
20260510013603 83 253 3.5 8.7 0.00 0.00 0.00 46 1010.3
20260510012703 84 255 3.5 8.7 0.00 0.00 0.00 45 1010.3
20260510011803 85 263 2.6 7.8 0.00 0.00 0.00 45 1010.3
20260510010903 85 248 2.6 8.7 0.00 0.00 0.00 45 1010.3
20260510010003 86 257 2.6 9.6 0.00 0.00 0.00 44 1010.2
20260510005403 86 264 3.5 9.6 0.00 0.00 0.00 44 1010.3
20260510004503 87 255 3.5 12.2 0.00 0.00 0.00 42 1010.3
20260510003603 88 261 3.5 11.3 0.00 0.00 0.00 41 1010.2
20260510002703 90 286 3.5 8.7 0.00 0.00 0.00 41 1010.2
20260510001803 90 322 3.5 8.7 0.00 0.00 0.00 45 1010.1
20260510000903 90 326 6.1 10.4 0.00 0.00 0.00 43 1010.1
20260510000003 90 324 3.5 9.6 0.00 0.00 0.00 42 1010.1
20260509235403 90 318 4.3 10.4 0.00 0.00 0.00 43 1010.1
20260509234503 90 321 4.3 11.3 0.00 0.00 0.00 41 1010.1
20260509233603 91 320 5.2 11.3 0.00 0.00 0.00 41 1010.2
20260509232703 91 324 5.2 10.4 0.00 0.00 0.00 41 1010.2
20260509231803 91 312 5.2 10.4 0.00 0.00 0.00 41 1010.2
20260509230903 90 333 5.2 11.3 0.00 0.00 0.00 40 1010.4
20260509230003 90 336 5.2 9.6 0.00 0.00 0.00 40 1010.3
20260509225403 90 332 6.1 11.3 0.00 0.00 0.00 38 1010.6
20260509224503 90 321 5.2 11.3 0.00 0.00 0.00 38 1010.6
20260509223603 90 325 4.3 7.8 0.00 0.00 0.00 38 1010.7
20260509222703 90 317 3.5 8.7 0.00 0.00 0.00 38 1011.0
20260509221803 90 320 4.3 11.3 0.00 0.00 0.00 39 1011.1
20260509220903 90 319 5.2 11.3 0.00 0.00 0.00 37 1011.2
20260509220024 89 328 5.2 11.3 0.00 0.00 0.00 38 1011.3
20260509215424 89 327 5.2 11.3 0.00 0.00 0.00 38 1011.3
20260509214503 89 330 4.3 10.4 0.00 0.00 0.00 39 1011.4
20260509213603 89 320 4.3 9.6 0.00 0.00 0.00 40 1011.6
20260509212703 89 316 4.3 9.6 0.00 0.00 0.00 41 1011.6
20260509211803 88 320 4.3 10.4 0.00 0.00 0.00 42 1011.7
20260509210903 88 318 3.5 7.8 0.00 0.00 0.00 42 1011.8
20260509210003 87 330 4.3 9.6 0.00 0.00 0.00 42 1012.0
20260509205403 87 330 4.3 9.6 0.00 0.00 0.00 42 1012.0
20260509204503 87 321 4.3 7.8 0.00 0.00 0.00 42 1012.0
20260509203603 87 323 4.3 10.4 0.00 0.00 0.00 45 1012.1
20260509202703 86 325 4.3 11.3 0.00 0.00 0.00 45 1012.2
20260509201803 86 313 5.2 8.7 0.00 0.00 0.00 47 1012.4
20260509200903 86 323 5.2 11.3 0.00 0.00 0.00 47 1012.4
20260509200003 85 320 4.3 9.6 0.00 0.00 0.00 47 1012.5
20260509195403 85 323 5.2 9.6 0.00 0.00 0.00 47 1012.5
20260509194503 85 317 3.5 7.8 0.00 0.00 0.00 47 1012.7
20260509193603 84 318 4.3 8.7 0.00 0.00 0.00 48 1012.8
20260509192703 83 319 3.5 8.7 0.00 0.00 0.00 51 1013.0
20260509191803 83 319 4.3 8.7 0.00 0.00 0.00 50 1013.2
20260509190903 82 321 3.5 9.6 0.00 0.00 0.00 52 1013.1
20260509190003 82 323 3.5 7.8 0.00 0.00 0.00 53 1013.2
20260509185403 81 310 4.3 8.7 0.00 0.00 0.00 53 1013.3
20260509184503 80 322 4.3 8.7 0.00 0.00 0.00 54 1013.4
20260509183603 80 319 4.3 8.7 0.00 0.00 0.00 55 1013.4
20260509182703 80 314 3.5 10.4 0.00 0.00 0.00 56 1013.3
20260509181803 79 307 3.5 8.7 0.00 0.00 0.00 57 1013.5
20260509180903 78 312 3.5 9.6 0.00 0.00 0.00 56 1013.6
20260509180024 78 301 3.5 7.0 0.00 0.00 0.00 56 1013.6
20260509175403 78 304 3.5 7.8 0.00 0.00 0.00 56 1013.8
20260509174503 77 310 3.5 7.8 0.00 0.00 0.00 55 1013.9
20260509173624 77 307 2.6 7.8 0.00 0.00 0.00 57 1013.7
20260509172703 76 297 2.6 7.0 0.00 0.00 0.00 56 1013.7
20260509171803 76 306 3.5 7.0 0.00 0.00 0.00 57 1013.7
20260509170903 74 313 2.6 7.0 0.00 0.00 0.00 58 1013.7
20260509170003 74 281 2.6 7.8 0.00 0.00 0.00 60 1013.8
20260509165403 73 260 2.6 4.3 0.00 0.00 0.00 59 1013.8
20260509164506 73 301 1.7 6.1 0.00 0.00 0.00 60 1013.9
20260509163624 72 299 1.7 3.5 0.00 0.00 0.00 62 1013.9
20260509162724 71 311 2.6 6.1 0.00 0.00 0.00 64 1013.9
20260509161824 70 328 1.7 4.3 0.00 0.00 0.00 65 1013.9
20260509160924 69 292 1.7 5.2 0.00 0.00 0.00 66 1013.8
20260509160026 69 327 1.7 3.5 0.00 0.00 0.00 68 1014.0
20260509155403 68 353 1.7 3.5 0.00 0.00 0.00 69 1014.0
20260509154503 68 30 1.7 3.5 0.00 0.00 0.00 70 1013.9
20260509153603 67 30 0.9 3.5 0.00 0.00 0.00 72 1013.9
20260509152703 66 30 1.7 2.6 0.00 0.00 0.00 74 1013.9
20260509151824 65 33 1.7 3.5 0.00 0.00 0.00 75 1014.0
20260509150924 64 35 0.9 3.5 0.00 0.00 0.00 76 1014.1
20260509150024 63 280 1.7 3.5 0.00 0.00 0.00 77 1014.2
20260509145424 63 254 1.7 3.5 0.00 0.00 0.00 78 1014.1
20260509144524 62 236 1.7 3.5 0.00 0.00 0.00 79 1014.0
20260509143626 61 219 0.9 3.5 0.00 0.00 0.00 81 1014.0
20260509142724 60 181 0.9 1.7 0.00 0.00 0.00 83 1013.9
20260509141824 58 180 0.9 1.7 0.00 0.00 0.00 85 1013.9
20260509140924 57 279 0.9 2.6 0.00 0.00 0.00 86 1013.9
20260509140024 56 290 0.9 2.6 0.00 0.00 0.00 86 1013.8
20260509135424 55 290 0.9 3.5 0.00 0.00 0.00 87 1013.7
20260509134503 54 290 0.9 3.5 0.00 0.00 0.00 87 1013.6
20260509133603 54 292 0.0 0.9 0.00 0.00 0.00 86 1013.6
20260509132703 54 294 0.0 0.9 0.00 0.00 0.00 85 1013.6
20260509131803 54 295 0.9 1.7 0.00 0.00 0.00 85 1013.5